Location: Le Marche
(43.5000°N, 13.2500°E)
Time: 09:30:40
(UTC+00:00)

Daily predictions for brighter satellites

Satellite Brightness Start Highest point End
(mag) Time Altitude Azimuth Time Altitude Azimuth Time Altitude Azimuth
H-2A R/B 3.4 19:08:02 10° SSW 19:12:46 40° W 19:17:40 10° NNW
SL-08 RB Rocket 4.3 19:10:10 10° S 19:14:42 61° W 19:19:13 10° NNW
STARLINK-1110 4.0 19:11:09 10° NW 19:15:16 60° NNE 19:19:21 10° ESE
ERBS 4.3 19:12:33 10° WSW 19:15:35 33° NW 19:18:38 10° NNE
Abrixas rocket 3.4 19:13:24 10° WNW 19:16:08 34° N 19:18:53 10° ENE
Aureole 1 Rocket 4.1 19:11:58 10° NNW 19:16:34 61° WSW 19:22:38 10° S
STARLINK-1143 3.9 19:14:11 10° WSW 19:18:19 74° NNW 19:22:28 10° NE
CZ-2C R/B 3.7 19:14:18 10° NNE 19:18:49 83° ESE 19:23:23 10° SSW
Resurs 1-3 3.6 19:16:32 10° SSE 19:20:55 81° ENE 19:25:20 10° N
STARLINK-1124 3.9 19:17:18 10° NW 19:21:26 66° NNE 19:25:34 10° ESE
MetOp-A 4.3 19:16:11 10° SSE 19:21:32 82° WSW 19:26:56 10° NNW
Cosmos 676 Rocket 4.1 19:16:20 10° NNW 19:21:37 86° WSW 19:26:55 10° SSE
Cosmos 1634 Rocket 4.1 19:16:11 10° N 19:22:33 77° E 19:28:53 10° SSE
STARLINK-1241 4.1 19:19:13 10° WSW 19:23:20 68° NNW 19:27:28 10° NE
STARLINK-1122 3.8 19:22:16 10° NW 19:26:25 72° NNE 19:30:33 10° ESE
Cosmos 1300 Rocket 3.9 19:23:31 10° N 19:27:52 49° ENE 19:32:09 10° SSE
STARLINK-1239 4.2 19:24:12 10° WSW 19:28:18 63° NNW 19:32:25 10° NE
NOSS 8 (E) 4.4 19:25:12 10° SSW 19:28:31 50° ESE 19:31:29 10° NE
Aureole 2 Rocket 3.4 19:28:37 10° SSE 19:31:08 22° ESE 19:33:35 10° NE
STARLINK-1126 3.7 19:27:17 10° NW 19:31:28 77° NE 19:35:27 11° ESE
NOSS 2-2 (D) 4.4 19:28:51 10° SSE 19:31:29 19° ESE 19:34:12 10° ENE
Cosmos 1437 Rocket 3.5 19:29:39 10° SSE 19:33:04 33° E 19:36:31 10° NNE
Meteor 1-4 Rocket 3.5 19:29:44 10° SSW 19:33:04 48° WNW 19:36:27 10° N
STARLINK-1240 4.3 19:29:11 10° WSW 19:33:16 59° NNW 19:37:23 10° NE
Cosmos 304 Rocket 4.4 19:31:50 10° SSE 19:36:10 36° ESE 19:40:32 10° NE
STARLINK-1082 3.6 19:32:13 10° NW 19:36:23 83° NE 19:40:10 12° ESE
USA 186 4.4 19:35:27 10° WSW 19:36:36 12° W 19:37:48 10° WNW
STARLINK-1203 4.5 19:33:49 10° WSW 19:37:57 55° NNW 19:42:05 10° NE
STARLINK-1216 4.5 19:34:12 10° WSW 19:38:15 55° NNW 19:42:20 10° NE
Lacrosse 5 1.9 19:33:13 10° NW 19:38:18 80° SW 19:42:55 12° SE
STARLINK-1100 3.6 19:37:11 10° NW 19:41:20 90° N 19:44:56 14° SE
ISS -3.7 19:38:00 10° WNW 19:41:23 71° SW 19:44:06 15° SE
COSMOS 2406 4.3 19:37:24 10° NW 19:42:48 43° WSW 19:48:10 10° S
Cosmos 1975 4.2 19:39:27 10° NNW 19:43:14 38° W 19:46:57 10° SSW
CZ-2C R/B 3.2 19:38:21 10° N 19:43:55 66° WNW 19:49:27 10° SSW
STARLINK-1083 3.6 19:42:11 10° NW 19:46:20 84° SW 19:49:44 15° SE
Cosmos 1674 Rocket 4.0 19:42:24 10° SSE 19:46:32 42° E 19:50:41 10° NNE
Meteor 2-4 Rocket 3.8 19:41:16 10° SSW 19:46:36 75° W 19:51:59 10° N
NOSS 2-2 (E) 3.6 19:45:18 10° S 19:48:37 38° ESE 19:52:11 10° NE
Cosmos 1378 Rocket 4.3 19:45:49 12° SSE 19:49:28 35° E 19:53:28 10° NNE
EXPRESS MD2 2.9 19:47:10 10° SW 19:49:55 70° SE 19:54:53 10° ENE
STARLINK-1125 3.6 19:47:10 10° WNW 19:51:19 77° SW 19:54:31 16° SE
Cosmos 2297 3.9 19:47:49 10° S 19:53:18 53° ESE 19:58:51 10° NNE
Cosmos 1943 Rocket 3.3 19:50:21 13° SSE 19:53:53 24° ESE 19:58:13 10° NE
Cosmos 1833 Rocket 3.3 19:48:53 10° NNW 19:54:21 53° WSW 19:59:47 10° S
STARLINK-1109 3.7 19:52:09 10° WNW 19:56:18 71° SW 19:59:18 18° SE
IGS 5A 3.8 19:55:29 16° SE 19:58:37 51° ENE 20:02:40 10° N
Cosmos 1452 Rocket 3.9 19:54:44 10° SSW 19:59:59 70° WNW 20:05:17 10° NNE
Cosmos 332 Rocket 3.9 19:55:21 10° SSW 20:00:16 86° WNW 20:05:12 10° NNE
BREEZE-M DEB 2.5 19:58:43 10° SSW 20:00:49 39° SE 20:04:27 10° ENE
Cosmos 2082 Rocket 2.3 19:55:21 10° NNW 20:01:05 78° WSW 20:06:02 14° SSE
STARLINK-1091 3.7 19:57:07 10° WNW 20:01:14 65° SW 20:04:04 19° SE
Landsat 7 4.0 19:57:48 15° SSE 20:01:35 59° ENE 20:06:16 10° N
Intercosmos 24 3.8 20:00:08 10° NNW 20:03:41 75° W 20:07:17 12° S
Meteor 1-23 Rocket 4.4 19:59:07 10° S 20:04:40 56° E 20:10:10 10° NNE
STARLINK-1072 3.8 20:02:08 10° WNW 20:06:13 59° SW 20:08:52 20° SE
Cosmos 1461 3.0 20:02:45 10° SW 20:06:52 79° NW 20:11:14 10° NNE
Cosmos 2369 Rocket 3.4 20:07:22 18° SE 20:09:48 23° E 20:14:08 10° NE
STARLINK-1096 4.0 20:07:08 10° WNW 20:11:11 54° SW 20:13:39 22° SSE
SAR-Lupe-2 3.5 20:08:30 10° NNE 20:12:07 72° ESE 20:15:10 14° S
NOSS 2-2 (C) 3.1 20:09:41 10° SSW 20:13:09 56° ESE 20:16:53 10° NE
STARLINK-1104 4.4 20:09:26 10° NW 20:13:26 46° NNE 20:16:40 15° E
STARLINK-1079 4.1 20:12:08 10° WNW 20:16:09 49° SW 20:18:26 23° SSE
ATLAS 2AS CENTAUR R/B 4.1 20:13:12 17° SE 20:16:46 24° ESE 20:22:43 10° ENE
SPOT 5 3.6 20:14:18 19° SE 20:17:42 46° ENE 20:22:47 10° N
STARLINK-1144 4.3 20:14:24 10° NW 20:18:27 49° NNE 20:21:28 16° E
SL-4 R/B 3.7 20:16:46 10° WNW 20:18:35 15° WSW 20:20:19 10° SSW
STARLINK-1116 4.2 20:17:09 10° WNW 20:21:06 45° SW 20:23:13 24° SSE
ERS-1 Rocket 3.2 20:19:40 21° SE 20:22:53 57° ENE 20:27:49 10° N
STARLINK-1103 4.2 20:19:21 10° NW 20:23:26 52° NNE 20:26:13 19° E
Okean 2 4.3 20:25:56 25° SE 20:27:20 32° E 20:31:03 10° NNE
Cosmos 1066 Rocket 4.0 20:22:28 11° S 20:27:46 84° E 20:33:09 10° NNE
STARLINK-1101 4.1 20:24:19 10° NW 20:28:25 56° NNE 20:31:00 21° ESE
USA 245 3.1 20:27:55 24° S 20:29:26 51° WSW 20:32:01 10° NNW
STARLINK-1094 4.5 20:27:11 10° WNW 20:31:01 37° SW 20:32:47 25° S
Resurs 01 Rocket 3.5 20:29:16 10° SSW 20:33:00 26° W 20:36:45 10° NW
USA 238 DEB 4.2 20:25:59 10° NNW 20:33:04 56° NE 20:38:26 19° ESE
USA 238 4.3 20:26:05 10° NNW 20:33:10 56° NE 20:38:33 19° ESE
STARLINK-1102 4.0 20:29:18 10° NW 20:33:25 60° NNE 20:35:47 23° ESE
Nadezhda 4 Rocket 3.9 20:28:28 12° S 20:34:09 85° E 20:40:18 10° N
Okean 1 Rocket 3.0 20:30:52 10° N 20:35:21 87° W 20:37:54 25° S
Cosmos 1805 3.4 20:31:45 10° N 20:35:37 55° E 20:37:07 33° SE
GPS 2-04 Rocket1 4.0 20:33:42 10° WSW 20:35:57 20° SSW 20:35:57 20° SSW
STARLINK-1111 3.9 20:34:16 10° NW 20:38:24 65° NNE 20:40:34 26° ESE
BREEZE-M DEB (TANK) 4.4 20:29:52 10° SSW 20:38:38 24° SSE 20:39:13 24° SE
Cosmos 1455 Rocket 4.1 20:37:04 10° NNE 20:40:55 30° ENE 20:42:18 25° ESE
STARLINK-1073 3.8 20:39:15 10° NW 20:43:23 70° NNE 20:45:21 29° ESE
SL-8 R/B 3.7 20:38:34 10° WNW 20:43:24 81° NNE 20:46:16 24° ESE
Terra 2.0 20:44:21 30° SE 20:46:34 59° ENE 20:51:15 10° N
Cosmos 1110 Rocket 4.3 20:41:46 10° SSW 20:46:55 68° WNW 20:52:06 10° NNE
SL-4 R/B 2.6 20:42:39 10° SSW 20:47:09 45° SE 20:51:46 10° ENE
Spot 2 Rocket 4.4 20:44:03 15° SSW 20:47:51 44° W 20:52:41 10° NNW
ATLAS 3B CENTAUR R/B 3.8 20:37:29 10° WSW 20:48:20 29° S 20:50:57 24° SSE
STARLINK-1121 3.7 20:44:13 10° NW 20:48:22 75° NNE 20:50:08 33° ESE
SPOT 1/Viking Rocket 3.9 20:45:17 21° S 20:48:41 61° WSW 20:53:48 10° NNW
Cosmos 1842 3.7 20:48:52 37° SE 20:49:37 42° E 20:53:19 10° NNE
CARTOSAT-1 3.5 20:47:49 31° S 20:49:51 83° WSW 20:54:12 10° NNW
Abrixas rocket 1.8 20:48:51 10° WNW 20:51:47 68° SSW 20:51:50 67° SSW
STARLINK-1106 3.6 20:49:13 10° NW 20:53:22 81° NNE 20:54:56 37° ESE
STARLINK-1112 3.5 20:54:09 10° NW 20:58:20 87° NE 20:59:42 41° ESE
STARLINK-1128 3.5 20:59:08 10° NW 21:03:17 86° SW 21:04:28 46° SE
SWAS 4.5 21:01:10 10° NNW 21:05:29 74° ENE 21:06:45 45° SE
STARLINK-1113 3.5 21:04:07 10° WNW 21:08:16 80° SW 21:09:15 51° SE
Cosmos 1733 3.1 21:04:54 10° N 21:08:43 87° W 21:09:32 54° S
Meteor 1-21 4.4 21:07:51 34° SSE 21:10:04 56° E 21:15:32 10° NNE
COSMOS 2455 3.9 21:09:44 25° ESE 21:10:10 26° ESE 21:15:00 10° NE
Cosmos 1378 4.2 21:09:41 22° SW 21:11:39 41° WNW 21:15:12 10° N
STARLINK-1119 3.5 21:09:08 10° WNW 21:13:17 73° SW 21:14:04 55° SSE
Cosmos 1302 Rocket 4.0 21:10:13 21° SSW 21:13:47 84° WNW 21:19:07 10° NNE
Cosmos 1271 Rocket 3.5 21:14:22 36° E 21:14:22 36° E 21:17:57 10° NNE
Cosmos 1242 Rocket 2.7 21:15:26 55° ESE 21:15:30 55° E 21:19:07 10° NNE
JB-3 4.5 21:11:55 10° NNE 21:16:02 58° E 21:16:37 52° SE
Cosmos 1486 Rocket 4.2 21:11:04 10° NNW 21:16:19 62° ENE 21:18:13 38° SE
Cosmos 1544 Rocket 3.8 21:13:32 10° N 21:17:48 53° E 21:18:39 45° ESE
STARLINK-1114 3.6 21:14:06 10° WNW 21:18:13 67° SW 21:18:49 57° S
MTI 3.7 21:15:43 10° N 21:18:51 74° WNW 21:18:58 73° W
STARLINK-60 3.7 21:20:11 44° NE 21:20:11 44° NE 21:22:28 10° NE
Cosmos 1092 Rocket 4.1 21:15:30 21° SSW 21:19:43 70° W 21:25:52 10° N
Lacrosse 5 4.0 21:18:08 10° W 21:20:30 13° WSW 21:22:07 12° SW
STARLINK-1130 (DARKSAT) 3.6 21:19:06 10° WNW 21:23:12 61° SW 21:23:37 57° S
Cosmos 1707 3.5 21:24:35 37° E 21:24:35 37° E 21:28:02 10° NNE
CENTAUR R/B 3.4 21:17:45 10° NNW 21:25:48 69° NE 21:31:08 27° SE
STARLINK-1084 3.7 21:24:06 10° WNW 21:28:10 56° SW 21:28:24 55° SSW
ATLAS 3B R/B 3.8 21:22:30 10° NNW 21:28:45 37° NE 21:33:56 15° ESE
SL-27 R/B 2.3 21:25:49 10° NNW 21:29:24 80° WSW 21:29:28 79° SW
NOSS 3-2 (C) 4.1 21:23:24 10° NW 21:31:01 80° NE 21:35:37 31° SE
ALOS 2 4.4 21:30:24 18° E 21:31:32 20° ENE 21:34:44 10° NNE
Cosmos 1726 3.7 21:29:46 10° NNE 21:32:51 24° ENE 21:32:51 24° ENE
STARLINK-1098 3.9 21:29:06 10° WNW 21:33:07 51° SW 21:33:10 51° SW
Cosmos 1867 4.3 21:30:28 10° NNW 21:35:45 47° NE 21:38:06 29° ESE
COSMOS 2487 4.3 21:34:13 10° N 21:36:56 21° ENE 21:37:03 21° ENE
Cosmos 1943 Rocket 2.9 21:31:51 10° SW 21:37:14 51° WNW 21:42:43 10° NNE
Cosmos 1992 Rocket 4.0 21:36:08 48° SSE 21:37:19 63° ESE 21:42:29 10° NNE
STARLINK-1123 4.0 21:34:05 10° WNW 21:37:56 46° SW 21:37:56 46° SW
NOSS 3-4 (A) 3.3 21:36:32 38° S 21:38:46 63° ESE 21:44:57 10° NE
NOSS 3-4 (C) 3.3 21:36:40 38° S 21:38:52 62° ESE 21:45:03 10° NE
STARLINK-1097 4.3 21:39:08 10° WNW 21:42:45 41° SW 21:42:45 41° SW
SeaSat 1 2.5 21:39:07 10° NE 21:43:58 55° ESE 21:44:35 51° SE
EO 1 Del DPAF 3.3 21:40:58 10° NNE 21:44:29 61° E 21:44:29 61° E
Cosmos 1975 Rocket 4.3 21:44:36 24° SW 21:46:40 37° WNW 21:50:47 10° N
STARLINK-1099 4.5 21:44:08 10° WNW 21:47:31 37° WSW 21:47:31 37° WSW
Cosmos 292 Rocket 4.1 21:48:20 33° SW 21:50:24 61° WNW 21:55:14 10° NNE
STARLINK-1212 4.4 21:47:48 10° NW 21:50:40 32° NNE 21:50:47 32° NNE
STARLINK-1105 4.4 21:48:16 10° NW 21:51:08 32° NNE 21:51:13 32° NNE
BREEZE-M DEB (TANK) 4.1 21:38:56 10° W 21:51:53 58° NNW 21:55:31 10° ENE
STARLINK-1247 4.4 21:49:08 10° NW 21:52:01 33° NNE 21:52:06 33° NNE
RESURS DK-1 4.4 21:53:56 17° ENE 21:53:56 17° ENE 21:55:32 10° ENE
STARLINK-1227 4.4 21:49:38 10° NW 21:52:30 33° NNE 21:52:32 33° NNE
Meteor 2-10 4.1 21:47:43 10° N 21:52:43 61° ENE 21:53:43 50° SE
BREEZE-M DEB (TANK) 4.1 21:49:51 10° WNW 21:53:21 41° NNE 21:57:18 10° E
STARLINK-1226 4.3 21:50:29 10° NW 21:53:22 34° NNE 21:53:23 34° NNE
Cosmos 2369 Rocket 2.8 21:49:04 17° SW 21:53:24 54° WNW 21:58:57 10° NNE
STARLINK-1215 4.3 21:51:22 10° NW 21:54:16 34° NNE 21:54:16 34° NNE
STARLINK-1217 4.3 21:53:11 10° NW 21:56:00 35° NNE 21:56:00 35° NNE
S3M 3.9 21:49:58 10° N 21:56:10 75° E 21:58:11 45° SSE
STARLINK-1229 4.3 21:54:05 10° NW 21:56:53 35° NNE 21:56:53 35° NNE
STARLINK-1270 4.3 21:54:58 10° NW 21:57:45 36° NNE 21:57:45 36° NNE
ATLAS CENTAUR R/B 1.4 21:59:35 68° E 21:59:35 68° E 22:03:33 10° NE
STARLINK-1189 4.3 21:56:46 10° NW 21:59:29 36° NNE 21:59:29 36° NNE
STARLINK-1188 4.3 21:57:40 10° NW 22:00:22 37° NNE 22:00:22 37° NNE
STARLINK-1187 4.3 21:58:45 10° NW 22:01:14 38° N 22:01:14 38° N
Cosmos 1340 Rocket 3.2 21:58:32 10° N 22:02:31 52° ENE 22:02:31 52° ENE
STARLINK-1191 4.3 22:00:06 10° NW 22:02:39 37° N 22:02:39 37° N
Cosmos 1025 Rocket 3.0 22:02:58 65° SW 22:03:26 72° W 22:07:44 10° N
STARLINK-1221 4.3 22:01:03 10° NW 22:03:34 37° N 22:03:34 37° N
STARLINK-1222 4.3 22:01:54 10° NW 22:04:23 37° N 22:04:23 37° N
Meteor 2-19 Rocket 4.5 22:03:37 47° SSE 22:05:18 65° E 22:11:22 10° NNE
Thor Agena Rocket 3.6 22:00:16 10° NNE 22:05:35 77° WNW 22:07:12 46° SSW
STARLINK-1214 4.3 22:02:48 10° NW 22:05:15 37° N 22:05:15 37° N
ATLAS 2AS CENTAUR R/B 3.0 22:00:30 17° SW 22:06:57 85° NW 22:14:57 10° NE
Cosmos 1656 Rocket 3.7 22:04:50 40° SSW 22:06:57 80° WNW 22:12:34 10° NNE
BREEZE M DEB (TANK) 4.3 22:06:09 10° WNW 22:08:24 22° N 22:08:33 22° N
Cosmos 1553 Rocket 4.2 22:03:25 10° NNW 22:09:37 64° W 22:11:43 41° SSW
Cosmos 1953 2.3 22:06:51 10° N 22:10:41 78° NE 22:10:41 78° NE
BREEZE-M DEB (TANK) 3.4 22:00:24 10° WNW 22:11:05 84° SSW 22:11:56 58° SE
STARLINK-1228 3.9 22:08:12 10° NW 22:11:08 53° NNW 22:11:08 53° NNW
Cosmos 1470 3.6 22:08:13 10° NNW 22:11:50 39° W 22:11:51 39° W
Cosmos 2292 Rocket 3.7 22:13:23 49° NE 22:13:23 49° NE 22:15:58 10° NNE
STARLINK-1235 4.3 22:10:54 10° NW 22:13:12 40° NNW 22:13:12 40° NNW
FALCON 9 R/B 4.5 22:19:35 16° ESE 22:19:35 16° ESE 22:22:03 10° E
Cosmos 968 Rocket 3.8 22:11:48 10° NNW 22:16:46 50° WSW 22:17:31 45° SW
Cosmos 1655 Rocket 4.0 22:15:01 43° SSW 22:17:12 77° W 22:23:30 10° N
SL-4 R/B 4.3 22:20:18 12° N 22:20:18 12° N 22:20:28 10° N
ATLAS 5 CENTAUR R/B 2.2 22:21:46 50° WNW 22:22:06 53° NW 22:24:28 10° NNE
Terra 3.9 22:23:15 14° WSW 22:24:41 16° W 22:27:33 10° NW
Cosmos 1758 4.5 22:21:39 10° NNW 22:25:19 33° W 22:25:25 33° W
SL-4 R/B 3.2 22:22:12 10° W 22:26:54 51° NNW 22:31:38 10° NE
Cosmos 2228 3.5 22:24:29 10° N 22:28:36 47° ENE 22:28:36 47° ENE
Cosmos 1726 Rocket 4.3 22:25:17 10° N 22:29:22 40° ENE 22:29:30 39° E
Meteor 2-15 4.4 22:23:21 10° N 22:29:31 83° E 22:31:06 53° SSE
In-Cosmos 22 4.0 22:30:05 58° SSW 22:31:07 79° W 22:36:26 10° N
Cosmos 921 Rocket 4.4 22:31:52 27° E 22:31:52 27° E 22:34:54 10° NE
Meteor 1-24 Rocket 4.4 22:33:05 34° ESE 22:33:43 35° E 22:38:36 10° NNE
Cosmos 2266 Rocket 3.9 22:33:43 48° SSW 22:35:30 76° W 22:41:34 10° N
CZ-4C R/B 4.3 22:36:20 10° E 22:36:20 10° E 22:36:45 10° E
Cosmos 1503 Rocket 4.5 22:31:50 10° NNW 22:36:55 47° WSW 22:37:35 45° SW
SJ 16-02 3.9 22:42:22 10° NNE 22:44:47 14° NE 22:47:10 10° E
Cosmos 1674 3.1 22:48:20 60° NNW 22:48:20 60° NNW 22:51:33 10° N
Meteor 2-15 Rocket 4.3 22:43:16 10° N 22:49:27 86° W 22:50:55 55° S
Helios 1B rocket 4.0 22:47:13 10° NE 22:50:09 24° E 22:50:09 24° E
COSMOS 2455 3.3 22:52:50 30° WSW 22:55:42 56° NW 23:01:39 10° NNE
USA 215 3.3 22:52:57 26° ESE 22:56:55 80° NE 23:03:29 10° NW
STARLINK-1206 4.4 22:53:19 10° NW 22:57:21 50° NNE 22:58:21 40° ENE
Cosmos 2219 4.2 22:54:18 10° NNW 22:59:37 39° ENE 23:02:18 25° ESE
Helios 1A 2.9 23:01:35 81° NNW 23:01:35 81° NNW 23:05:36 10° NNW
STARLINK-1205 4.3 22:58:16 10° NW 23:02:20 53° NNE 23:03:07 45° ENE
Cosmos 2297 Rocket 3.4 22:58:41 10° N 23:03:52 35° NE 23:07:00 20° ESE
Lacrosse 4 Rocket 4.3 23:05:01 10° NNE 23:07:08 13° NE 23:09:12 10° ENE
STARLINK-1368 4.3 23:08:27 43° NE 23:08:27 43° NE 23:11:06 10° NE
STARLINK-1218 4.1 23:03:15 10° NW 23:07:21 57° NNE 23:07:55 51° ENE
ALOS 2 3.3 23:07:47 41° W 23:07:47 41° W 23:11:45 10° NNW
Cosmos 1726 4.1 23:05:03 10° NW 23:07:20 21° WNW 23:07:20 21° WNW
PSLV R/B 4.4 23:03:49 10° NNE 23:07:54 39° E 23:07:54 39° E
STARLINK-1369 4.2 23:11:47 46° NE 23:11:47 46° NE 23:14:34 10° NE
Timation 2 Rocket 3.8 23:05:05 10° NNW 23:11:23 87° WSW 23:12:55 54° SSE
Cosmos 2058 Rocket 3.0 23:07:27 10° N 23:11:55 74° E 23:11:58 74° E
STARLINK-1254 4.0 23:08:13 10° NW 23:12:20 61° NNE 23:12:41 58° ENE
STARLINK-1372 4.1 23:15:08 50° NE 23:15:08 50° NE 23:18:03 10° NE
Meteor 2-5 Rocket 3.7 23:14:12 58° SW 23:15:16 76° W 23:20:55 10° N
CENTAUR R/B 4.0 23:09:02 10° NW 23:16:17 34° WSW 23:18:17 31° SW
STARLINK-1231 3.8 23:13:10 10° NW 23:17:18 66° NNE 23:17:27 65° NE
STARLINK-1378 4.0 23:18:28 53° NNE 23:18:28 53° NNE 23:21:33 10° NE
SL-14 R/B 3.5 23:19:11 63° NNE 23:19:11 63° NNE 23:22:29 10° N
ATLAS 3B R/B 2.9 23:13:03 10° NW 23:19:42 56° WSW 23:21:10 47° SSW
SeaSat 1 4.3 23:17:14 10° N 23:21:10 24° NW 23:24:20 13° W
STARLINK-1379 4.0 23:21:51 56° NNE 23:21:51 56° NNE 23:25:04 10° NE
Cosmos 1606 Rocket 4.3 23:17:45 10° NNW 23:21:36 41° W 23:21:36 41° W
STARLINK-1232 3.8 23:18:10 10° NW 23:22:15 71° NNE 23:22:15 71° NNE
Meteor 2-21 4.4 23:20:59 53° SSW 23:22:33 80° W 23:28:47 10° N
STARLINK-1329 3.9 23:23:14 57° NNE 23:23:14 57° NNE 23:26:31 10° NE
SL-16 R/B 4.5 23:20:15 10° ESE 23:24:51 23° ENE 23:29:28 10° N
STARLINK-1362 3.9 23:26:40 58° N 23:26:40 58° N 23:30:06 10° NE
STARLINK-1208 3.7 23:23:07 10° NW 23:27:00 72° N 23:27:00 72° N
Cosmos 1656 4.0 23:27:53 45° SE 23:28:38 48° ESE 23:34:01 10° NE
ATLAS CENTAUR R/B 3.1 23:27:14 10° NNW 23:29:33 31° NE 23:33:51 10° ESE
STARLINK-1373 3.9 23:30:05 57° NNW 23:30:05 57° NNW 23:33:41 10° NE
RESURS DK-1 3.4 23:29:48 36° WNW 23:30:16 38° WNW 23:34:09 10° NNE
STARLINK-1365 4.0 23:31:12 55° NNW 23:31:12 55° NNW 23:34:55 10° NE
STARLINK-1271 3.8 23:28:07 10° NW 23:31:49 69° NW 23:31:49 69° NW
STARLINK-1390 4.0 23:33:35 55° NNW 23:33:35 55° NNW 23:37:17 10° NE
Cosmos 1697 Rocket 3.8 23:32:47 28° ESE 23:33:41 29° ESE 23:38:30 10° NE
Cosmos 2084 4.4 23:33:36 38° W 23:34:36 45° NW 23:38:55 10° NNE
Cosmos 1626 2.8 23:36:00 49° NW 23:36:00 49° NW 23:39:07 10° N
BREEZE-M R/B 3.4 23:31:45 20° WSW 23:36:42 81° NNW 23:40:25 10° ENE
STARLINK-1154 3.9 23:33:06 10° NW 23:36:35 62° NW 23:36:35 62° NW
Okean 1-7 Rocket 3.9 23:37:39 53° W 23:37:51 54° WNW 23:42:19 10° N
Cosmos 1812 Rocket 4.5 23:33:54 10° N 23:38:08 40° ENE 23:38:55 37° ESE
ATLAS CENTAUR R/B 3.9 23:35:46 10° W 23:38:40 17° NW 23:41:28 10° N
Cosmos 2227 Rocket 2.6 23:35:18 10° NNW 23:40:56 57° ENE 23:43:30 31° SE
STARLINK-1197 4.0 23:38:03 10° NW 23:41:21 55° WNW 23:41:21 55° WNW
CZ-4 R/B 3.7 23:38:35 10° N 23:43:21 79° WNW 23:43:50 69° SW
STARLINK-1198 4.2 23:43:02 10° WNW 23:46:07 48° WNW 23:46:07 48° WNW
Cosmos 1602 Rocket 3.6 23:47:23 61° ESE 23:47:31 61° E 23:51:48 10° NNE
SL-08 ROCKET BODY 4.3 23:46:46 52° S 23:48:15 79° E 23:54:07 10° N
STARLINK-1199 4.4 23:48:02 10° WNW 23:50:55 42° WNW 23:50:55 42° WNW
